Location: Observatoire
(46.1952°N, 5.3391°E)
Time: 06:14:10
(UTC+01:00)

Tiros 1 despin weight - Pass Details

Date: 17 February 2026
Orbit: 556 x 593 km, 48.2° (Epoch: 13 March)

Event Time Altitude Azimuth Distance (km) Brightness Sun altitude
Rises 16:24:02 0° 237° (WSW) 2,732 ? 15.1°
Reaches altitude 10° 16:26:18 10° 234° (SW) 1,835 ? 14.8°
Maximum altitude 16:30:25 59° 155° (SSE) 641 ? 14.2°
Drops below altitude 10° 16:34:33 10° 76° (ENE) 1,836 ? 13.7°
Sets 16:36:49 0° 72° (ENE) 2,734 ? 13.3°
